Find TIRSAT

NORAD ID: 58989 Int'l Des: 2024-032 Owner: JSS Country: J operational
LEOCIRCULARRETROGRADESSO

当前视图

正在加载3D地球...

About TIRSAT

TIRSAT (NORAD 58989) is a satellite launched Feb 17, 2024 by JSS of J. It operates in LEO, CIRCULAR, RETROGRADE, SSO orbit with a mass of 5.00 kg.

即将过境

Passes for default location (London). Set your location on the main map for personalized predictions.

高度历史

Loading altitude history...

两行轨道根数

1 58989U 24032C 26195.08506406 .00000611 00000-0 10401-3 0 9999
2 58989 97.9954 252.9955 0006144 70.0324 290.1545 14.72521276129041
Epoch: Jul 14, 2026 • Age: 7 hours

当前状态

高度 662.3 km
远地点 / 近地点 N/A
速度 7.52 km/s
星下点 -16.65°S, 3.18°W
发射日期 Feb 17, 2024
运行时间 2.4 years
类型 other

技术详情

分类 Payload
质量 5.00 kg
干质量 5.00 kg
总质量 5.00 kg
长度 0.38 m
直径 0.12 m
跨度 0.80 m
形状 Box +4 pan
制造商 JSS
平台类型 Cubesat 3U
阶段状态 In Orbit
所有者/国家 JSS/J

Most Searched